COSMOS 1844

Last updated on Sat Aug 15 2026 00:02:07 GMT+0000 (Coordinated Universal Time)

1 17973U 87041A 26226.58722029 .00000122 00000+0 88513-4 0 9993 2 17973 70.8957 61.1214 0029855 148.7079 211.5827 14.14577021 25910
UTC large
Height (km)
Speed (km/s)
/
Latitude / Longitude
Inclination (degrees)
Orbital Period (minutes)
Azimuth
Elevation
Range (km)
Doppler Factor

Next 0 passes for location: London (51.5072 / 0.1276)

No passes found over London.
COSMOS 1844